Weather History for Fort Indiantown Gap, PA

Change the Weather History Date:

Friday, March 16, 2012

  Actual Average Record
Temperature  
Mean Temperature 53 °F -  
Max Temperature 64 °F 44 °F 64 °F (2012)
Min Temperature 44 °F 30 °F 26 °F (1998)
Degree Days  
Heating Degree Days 12    
Growing Degree Days 3 (Base 50)    
Moisture  
Dew Point 45 °F    
Average Humidity 90    
Maximum Humidity 100    
Minimum Humidity 65    
Precipitation  
Precipitation 0.00 in - - ()
Sea Level Pressure  
Sea Level Pressure 30.20 in    
Wind  
Wind Speed 5 mph (ENE)    
Max Wind Speed 8 mph    
Max Gust Speed -    
Visibility 6 miles    
Events      
Averages and records for this station are not official NWS values.
T = Trace of Precipitation, MM = Missing Value Source: NWS Daily Summary

Daily Weather History Graph

Daily Weather History Graph

Search for Another Location

Airport:

Trip Planner

Search our weather history database for the weather conditions in past years. The results will help you decide how hot, cold, wet, or windy it might be!

Date:

Astronomy

Mar. 16, 2012 Rise Set
Actual Time 7:15 AM EDT 7:14 PM EDT
Civil Twilight 6:48 AM EDT 7:41 PM EDT
Nautical Twilight 6:16 AM EDT 8:13 PM EDT
Astronomical Twilight 5:44 AM EDT 8:45 PM EDT
Moon 3:33 AM EDT (3/16) 1:31 PM EDT (3/16)
Length of Visible Light 12h 53m
Length of Day
11h 59m
Waning Crescent, 33% of the Moon is Illuminated
Mar 16
Waning Crescent
Mar 22
New
Mar 30
First Quarter
Apr 6
Full
Apr 13
Last Quarter

Hourly Weather History & Observations

Time (EDT) Temp. Windchill Dew Point Humidity Pressure Visibility Wind Dir Wind Speed Gust Speed Precip Events Conditions
12:55 AM 48.2 °F - 44.2 °F 86% 30.22 in 10.0 mi East 8.1 mph - N/A   Overcast
1:08 AM 48.2 °F - 44.6 °F 87% 30.22 in 10.0 mi East 8.1 mph - N/A   Overcast
1:55 AM 47.7 °F - 44.6 °F 89% 30.22 in 10.0 mi East 6.9 mph - N/A   Overcast
2:55 AM 46.9 °F - 44.2 °F 90% 30.21 in 10.0 mi ENE 4.6 mph - N/A   Overcast
3:48 AM 46.4 °F 43.5 °F 44.6 °F 93% 30.20 in 10.0 mi ENE 5.8 mph - N/A   Overcast
3:55 AM 46.4 °F 44.3 °F 43.9 °F 91% 30.21 in 10.0 mi ENE 4.6 mph - N/A   Overcast
4:24 AM 46.4 °F 43.5 °F 44.6 °F 93% 30.20 in 10.0 mi East 5.8 mph - N/A   Overcast
4:47 AM 46.4 °F 42.4 °F 44.6 °F 93% 30.20 in 5.0 mi East 8.1 mph - N/A   Overcast
4:55 AM 45.3 °F 43.0 °F 44.2 °F 96% 30.21 in 4.0 mi East 4.6 mph - N/A   Overcast
5:55 AM 45.1 °F 42.8 °F 44.6 °F 98% 30.21 in 3.0 mi East 4.6 mph - N/A   Overcast
6:28 AM 44.6 °F 42.2 °F 44.6 °F 100% 30.21 in 4.0 mi East 4.6 mph - N/A   Light Drizzle
6:39 AM 44.6 °F 43.1 °F 44.6 °F 100% 30.21 in 4.0 mi ENE 3.5 mph - N/A   Overcast
6:55 AM 45.1 °F 42.0 °F 44.6 °F 98% 30.21 in 4.0 mi East 5.8 mph - 0.00 in   Overcast
7:22 AM 44.6 °F - 44.6 °F 100% 30.22 in 2.5 mi Calm Calm - N/A   Overcast
7:33 AM 44.6 °F 40.7 °F 44.6 °F 100% 30.21 in 3.0 mi ESE 6.9 mph - N/A   Overcast
7:47 AM 44.6 °F 41.4 °F 44.6 °F 100% 30.21 in 2.5 mi ENE 5.8 mph - N/A   Overcast
7:55 AM 45.1 °F 42.8 °F 44.6 °F 98% 30.21 in 2.0 mi ENE 4.6 mph - N/A   Overcast
8:15 AM 44.6 °F 42.2 °F 44.6 °F 100% 30.20 in 3.0 mi ENE 4.6 mph - N/A   Overcast
8:29 AM 44.6 °F 41.4 °F 44.6 °F 100% 30.20 in 2.5 mi ENE 5.8 mph - N/A   Overcast
8:32 AM 44.6 °F 40.7 °F 44.6 °F 100% 30.20 in 1.8 mi ENE 6.9 mph - N/A   Overcast
8:33 AM 44.6 °F 41.4 °F 44.6 °F 100% 30.20 in 1.5 mi ENE 5.8 mph - N/A   Overcast
8:36 AM 44.6 °F 41.4 °F 44.6 °F 100% 30.19 in 1.2 mi East 5.8 mph - N/A   Light Drizzle
8:37 AM 44.6 °F 41.4 °F 44.6 °F 100% 30.19 in 1.0 mi East 5.8 mph - N/A   Light Drizzle
8:53 AM 44.6 °F - 44.6 °F 100% 30.21 in 1.2 mi Calm Calm - N/A   Light Drizzle
8:54 AM 44.6 °F - 44.6 °F 100% 30.21 in 1.2 mi Calm Calm - N/A   Overcast
8:55 AM 45.1 °F - 44.6 °F 98% 30.20 in 1.2 mi Calm Calm - 0.00 in   Overcast
9:14 AM 44.6 °F 42.2 °F 44.6 °F 100% 30.20 in 1.8 mi NE 4.6 mph - N/A   Overcast
9:18 AM 44.6 °F 42.2 °F 44.6 °F 100% 30.20 in 1.5 mi NE 4.6 mph - N/A   Overcast
9:26 AM 44.6 °F - 44.6 °F 100% 30.22 in 1.8 mi Calm Calm - N/A   Overcast
9:29 AM 46.4 °F 44.3 °F 44.6 °F 93% 30.22 in 2.0 mi NNE 4.6 mph - N/A   Overcast
9:33 AM 46.4 °F 44.3 °F 44.6 °F 93% 30.22 in 3.0 mi NE 4.6 mph - N/A   Overcast
9:55 AM 46.0 °F 44.8 °F 45.0 °F 96% 30.23 in 5.0 mi North 3.5 mph - N/A   Overcast
10:13 AM 46.4 °F - 44.6 °F 93% 30.23 in 10.0 mi Calm Calm - N/A   Overcast
10:19 AM 46.4 °F - 44.6 °F 93% 30.22 in 10.0 mi Calm Calm - N/A   Overcast
10:31 AM 48.2 °F - 44.6 °F 87% 30.22 in 10.0 mi ESE 3.5 mph - N/A   Overcast
10:55 AM 48.0 °F - 44.8 °F 89% 30.22 in 10.0 mi ENE 4.6 mph - N/A   Overcast
11:55 AM 49.8 °F - 45.1 °F 84% 30.21 in 10.0 mi Calm Calm - N/A   Overcast
12:18 PM 51.8 °F - 44.6 °F 76% 30.20 in 10.0 mi Calm Calm - N/A   Overcast
12:55 PM 52.3 °F - 45.7 °F 78% 30.19 in 10.0 mi Calm Calm - N/A   Overcast
1:28 PM 53.6 °F - 46.4 °F 77% 30.17 in 10.0 mi Calm Calm - N/A   Mostly Cloudy
1:42 PM 55.4 °F - 46.4 °F 72% 30.17 in 10.0 mi Calm Calm - N/A   Scattered Clouds
1:55 PM 56.3 °F - 47.1 °F 71% 30.16 in 10.0 mi South 5.8 mph - N/A   Partly Cloudy
2:55 PM 58.5 °F - 48.0 °F 68% 30.14 in 10.0 mi Variable 5.8 mph - N/A   Partly Cloudy
3:55 PM 61.3 °F - 49.3 °F 65% 30.13 in 10.0 mi SSW 6.9 mph - N/A   Clear
4:55 PM 61.7 °F - 49.8 °F 65% 30.12 in 10.0 mi SSW 8.1 mph - N/A   Clear
5:55 PM 62.2 °F - 50.2 °F 65% 30.12 in 10.0 mi SSW 8.1 mph - N/A   Clear
6:55 PM 60.4 °F - 49.8 °F 68% 30.13 in 8.0 mi SW 3.5 mph - N/A   Clear
7:55 PM 55.9 °F - 48.9 °F 77% 30.14 in 10.0 mi Calm Calm - N/A   Clear
8:55 PM 54.1 °F - 48.0 °F 80% 30.16 in 8.0 mi Calm Calm - N/A   Clear
9:55 PM 50.2 °F - 46.9 °F 89% 30.17 in 7.0 mi NE 3.5 mph - N/A   Clear
10:55 PM 50.2 °F - 47.5 °F 90% 30.18 in 6.0 mi Calm Calm - N/A   Clear
11:55 PM 48.2 °F - 46.8 °F 95% 30.19 in 4.0 mi Calm Calm - N/A   Clear